Location: Caucaguita
(10.3578°N, 66.8025°W)
Time: 03:21:08
(UTC+00:00)

Cosmos 468 Rocket - Pass Details

Date: 18 November 2025
Orbit: 740 x 774 km, 74.0° (Epoch: 09 December)

Event Time Altitude Azimuth Distance (km) Brightness Sun altitude
Rises 22:51:25 0° 358° (N) 3,185 7.0 -12.5°
Reaches altitude 10° 22:53:54 10° 6° (N) 2,257 6.2 -13.1°
Maximum altitude 22:58:43 42° 76° (ENE) 1,053 4.2 -14.2°
Drops below altitude 10° 23:03:30 10° 147° (SSE) 2,245 6.3 -15.3°
Sets 23:05:57 0° 153° (SSE) 3,166 7.1 -15.9°
